Temp
68 70 71 70 69 69 70 71 71 72 72 71 71 71 71 72 72 72 72 72 71 71 70 70 70 69 68 68 70 71 84 84
63 63 69 70 70 69 69 69 70 70 70 69 69 70 71 71 71 71 71 71 71 70 69 69 69 68 68 68 69 72 83 85
63 60 61 65 69 70 70 70 69 69 70 69 70 76 79 75 71 70 70 69 69 69 68 67 67 67 68 69 69 82 83 83
60 60 61 63 67 69 72 75 75 75 75 73 78 76 80 80 72 68 68 67 68 68 68 68 70 81 79 72 81 80 81 81
60 61 62 64 64 65 71 76 76 74 74 74 79 78 77 79 76 77 75 72 78 75 74 80 80 81 79 78 79 80 80 81
58 60 61 62 61 64 68 74 73 73 74 78 74 79 78 79 80 80 78 80 78 79 80 77 77 77 76 75 76 77 78 80
57 59 60 61 61 64 69 74 71 74 77 79 77 78 78 80 81 81 81 81 80 78 77 77 76 76 77 76 75 74 75 77
58 59 61 62 64 64 66 68 71 75 77 77 78 80 78 80 79 81 80 80 80 79 78 76 76 76 74 74 74 75 74 74
59 59 61 64 67 68 71 70 73 74 76 76 77 78 78 79 79 78 79 80 78 78 76 77 76 78 74 74 75 73 75 73
63 68 69 69 71 74 76 77 77 79 79 78 78 79 79 77 78 78 78 77 77 76 76 75 76 76 74 75 75 74 72 72
67 69 68 67 70 76 76 78 78 80 80 80 78 78 78 77 78 77 76 77 76 76 75 75 73 74 74 74 73 72 72 74
70 73 71 71 72 76 78 78 78 81 81 81 78 78 76 76 78 76 75 76 75 74 73 74 74 74 74 73 71 71 71 70
75 73 73 72 72 75 76 74 77 79 81 80 79 78 76 75 78 75 74 75 73 72 71 69 70 71 69 70 71 68 67 68
76 75 75 74 74 77 79 78 79 80 80 77 75 77 77 76 76 75 73 74 72 70 69 69 70 69 66 66 62 63 66 66
78 78 78 78 79 80 80 80 80 78 79 78 74 76 78 76 76 75 73 74 70 68 69 68 67 67 66 60 53 57 63 68
80 80 80 76 80 78 77 77 76 78 76 74 74 74 75 76 75 73 72 72 70 69 70 69 67 64 62 63 61 62 58 58
79 80 81 81 80 79 78 76 78 80 79 74 73 75 74 74 73 71 69 70 70 69 68 66 66 60 62 60 62 63 62 57
80 79 80 81 81 79 77 75 76 75 72 72 74 73 72 71 72 69 68 67 68 67 66 61 59 59 55 61 62 60 60 59
80 79 79 80 78 73 74 73 72 65 67 68 69 69 68 68 69 65 64 62 65 65 58 57 54 52 55 61 64 62 62 60
80 80 79 80 75 70 69 71 68 67 64 63 63 63 63 66 63 60 60 61 59 56 57 55 51 53 54 60 61 61 61 60
MSLP
1014.24 1014.99 1015.26 1015.32 1015.49 1016.07 1016.65 1017.47 1017.97 1018.35 1018.65 1019.06 1019.51 1019.79 1019.96 1020.41 1020.73 1020.89 1021.17 1021.52 1021.90 1022.25 1022.63 1022.84 1023.01 1023.13 1023.09 1022.82 1022.59 1022.12 1021.57 1021.67
1014.69 1016.04 1016.06 1016.12 1016.20 1016.59 1017.04 1017.67 1018.34 1018.94 1019.12 1019.23 1019.90 1020.31 1020.60 1020.95 1021.09 1021.35 1021.64 1021.85 1022.19 1022.43 1022.90 1023.11 1023.35 1023.37 1023.40 1023.15 1022.95 1022.36 1021.88 1021.61
1014.98 1015.16 1017.22 1016.90 1016.57 1016.91 1017.89 1018.48 1018.57 1019.29 1019.75 1019.77 1020.00 1020.34 1020.55 1021.24 1021.50 1021.91 1022.11 1022.32 1022.50 1022.82 1023.07 1023.32 1023.51 1023.72 1023.64 1023.27 1023.11 1022.34 1022.02 1022.16
1016.18 1016.28 1017.68 1017.41 1016.96 1017.72 1018.10 1019.09 1019.07 1019.47 1019.77 1020.09 1019.82 1020.01 1020.70 1021.19 1022.01 1022.34 1022.53 1022.76 1023.00 1023.23 1023.21 1023.16 1022.99 1022.54 1022.95 1023.03 1022.72 1022.87 1022.52 1022.57
1016.57 1016.92 1017.05 1018.14 1018.18 1018.67 1018.57 1018.94 1019.68 1019.70 1019.88 1019.85 1019.75 1020.48 1021.03 1021.45 1022.02 1022.42 1022.74 1022.87 1022.90 1023.08 1023.12 1022.66 1022.55 1022.33 1022.93 1023.18 1023.14 1022.88 1022.93 1022.86
1017.20 1017.75 1018.37 1018.43 1018.94 1019.03 1018.81 1019.22 1019.74 1020.08 1019.79 1019.68 1020.20 1020.64 1020.96 1021.17 1021.30 1021.57 1022.06 1022.09 1022.41 1022.32 1022.39 1022.87 1023.17 1023.23 1023.53 1023.69 1023.63 1023.43 1023.41 1023.08
1017.98 1018.26 1018.27 1019.03 1019.31 1019.78 1019.42 1019.27 1019.85 1020.25 1020.32 1020.33 1020.66 1020.60 1020.84 1020.85 1020.82 1021.09 1021.37 1021.78 1022.14 1022.27 1022.66 1022.86 1023.31 1023.43 1023.59 1023.65 1023.59 1023.75 1023.94 1023.68
1018.86 1019.30 1019.45 1019.84 1019.92 1019.96 1019.54 1019.76 1020.25 1020.23 1020.20 1020.67 1020.35 1020.44 1020.90 1020.67 1021.16 1021.08 1021.44 1021.76 1021.85 1022.18 1022.47 1022.88 1022.99 1023.42 1023.79 1023.87 1023.90 1023.85 1024.16 1024.18
1019.03 1019.57 1020.06 1019.89 1019.44 1019.47 1019.83 1020.64 1020.51 1020.38 1020.28 1020.31 1020.43 1020.66 1021.00 1020.68 1020.99 1021.28 1021.57 1021.77 1022.00 1022.13 1022.84 1022.76 1022.99 1023.06 1023.56 1023.78 1023.87 1024.02 1024.03 1024.27
1019.07 1019.29 1019.51 1019.46 1019.41 1019.56 1019.55 1019.61 1019.69 1019.62 1019.77 1020.18 1020.40 1020.55 1020.71 1020.94 1021.06 1021.21 1021.61 1022.00 1022.07 1022.26 1022.57 1022.64 1022.89 1023.04 1023.37 1023.40 1023.63 1023.90 1024.20 1024.33
1018.36 1018.64 1018.93 1019.13 1019.04 1018.69 1019.01 1018.81 1019.11 1019.10 1019.36 1019.54 1020.17 1020.45 1020.55 1020.64 1020.95 1021.14 1021.83 1021.82 1021.86 1022.07 1022.38 1022.54 1022.86 1023.07 1023.19 1023.39 1023.64 1023.65 1023.94 1023.86
1017.50 1017.73 1018.30 1018.55 1018.56 1018.24 1018.42 1018.63 1018.74 1018.59 1018.69 1018.96 1019.86 1020.14 1020.48 1020.78 1020.66 1021.12 1021.69 1021.59 1021.87 1022.20 1022.28 1022.60 1022.76 1022.96 1023.02 1023.12 1023.38 1023.63 1023.76 1023.94
1016.01 1016.91 1017.43 1017.88 1018.09 1017.62 1017.80 1017.99 1018.07 1018.07 1018.14 1018.68 1019.10 1019.70 1020.24 1020.59 1020.39 1021.10 1021.52 1021.37 1021.81 1022.08 1022.56 1022.68 1022.89 1023.33 1023.29 1022.82 1022.49 1023.16 1023.81 1023.83
1015.21 1016.06 1016.62 1017.21 1017.29 1017.08 1017.04 1017.28 1017.48 1017.48 1017.78 1018.71 1019.30 1019.40 1019.83 1020.12 1020.11 1020.50 1021.15 1021.15 1021.68 1022.10 1022.28 1022.34 1022.58 1023.23 1023.07 1022.88 1022.49 1022.92 1023.11 1023.49
1014.17 1014.83 1015.34 1015.75 1015.88 1016.24 1016.26 1016.69 1016.88 1017.29 1017.43 1017.97 1018.97 1019.18 1019.18 1019.49 1019.82 1020.20 1020.67 1020.89 1021.54 1021.89 1022.11 1022.15 1022.33 1023.00 1023.41 1023.64 1023.34 1022.56 1022.37 1022.05
1013.03 1013.60 1014.19 1015.09 1015.31 1015.23 1015.58 1016.07 1016.13 1016.22 1016.95 1018.06 1018.50 1018.83 1018.95 1019.27 1019.60 1020.03 1020.44 1020.92 1021.13 1021.56 1021.76 1022.02 1022.32 1022.50 1023.55 1023.76 1023.77 1023.41 1022.92 1022.03
1012.37 1012.82 1013.26 1013.72 1014.27 1014.64 1014.93 1015.55 1015.71 1015.91 1016.34 1017.06 1017.97 1018.10 1018.85 1019.14 1019.38 1020.01 1020.50 1020.75 1020.85 1021.36 1021.65 1022.23 1022.69 1023.32 1023.43 1023.67 1023.18 1023.12 1023.29 1023.27
1011.40 1012.08 1012.46 1012.88 1013.34 1014.25 1014.62 1014.96 1015.78 1015.89 1016.02 1016.67 1017.16 1018.00 1018.63 1018.90 1019.22 1019.69 1020.03 1020.46 1020.76 1021.24 1021.77 1022.50 1023.14 1023.57 1023.98 1023.63 1023.03 1022.84 1022.71 1022.66
1010.50 1011.14 1011.48 1012.05 1012.94 1013.90 1014.63 1014.94 1014.75 1015.56 1016.13 1016.26 1017.24 1017.69 1018.29 1018.86 1019.11 1019.63 1020.07 1020.47 1020.82 1021.31 1022.21 1022.87 1023.53 1023.78 1023.89 1023.51 1023.16 1023.11 1023.30 1023.16
1009.46 1010.04 1010.65 1011.28 1012.40 1013.41 1014.76 1014.99 1014.37 1015.18 1015.39 1016.24 1017.11 1017.43 1018.06 1018.88 1019.58 1019.79 1020.15 1020.52 1021.14 1021.91 1022.49 1023.20 1023.68 1023.68 1023.74 1023.38 1023.57 1023.34 1023.31 1023.38
Wind_Speed
10 12 13 15 17 16 15 15 15 16 16 16 16 15 16 15 15 16 17 17 17 15 14 13 12 10 8 6 7 9 6 7
14 11 7 10 11 15 15 13 15 14 17 18 16 15 14 13 14 15 16 16 16 16 13 13 12 10 6 1 6 10 8 7
14 18 6 6 11 14 15 14 16 15 14 15 13 10 13 13 15 12 14 14 15 14 13 12 11 8 2 6 8 6 6 6
13 16 13 11 6 7 11 11 9 10 12 10 8 9 9 12 11 12 13 13 12 11 11 12 13 9 5 8 6 5 5 5
14 13 14 7 8 3 3 5 5 6 10 8 10 7 7 8 7 8 8 10 8 9 8 8 5 4 5 5 4 4 4 4
13 12 10 11 5 5 5 6 6 4 2 3 5 6 7 8 7 9 8 8 9 7 4 5 5 5 4 3 4 6 5 4
11 9 11 10 8 7 4 7 5 5 7 5 6 6 6 7 6 7 7 6 6 5 6 5 4 4 2 2 4 4 5 3
12 7 7 10 6 4 3 3 2 4 6 8 7 5 5 6 6 5 5 6 6 6 5 5 5 4 3 4 4 3 2 3
9 11 11 12 8 7 7 6 7 5 7 8 6 6 6 7 6 5 6 5 6 4 5 4 5 3 2 3 3 2 1 2
16 17 19 15 15 14 10 11 10 10 8 8 11 10 9 7 6 6 6 6 6 6 7 5 4 3 2 2 1 1 0 2
19 18 17 14 13 10 7 7 7 8 8 7 9 11 9 7 7 6 7 7 5 5 4 4 4 3 3 2 1 3 2 2
21 16 18 14 9 9 9 9 9 9 9 9 12 8 8 8 7 7 8 6 6 6 6 5 3 1 4 3 3 3 4 4
19 17 17 10 10 10 10 10 10 9 8 9 9 9 10 10 8 8 9 7 7 7 6 6 4 3 4 6 6 7 6 6
19 19 19 15 10 10 9 9 10 10 8 8 9 10 12 11 10 9 11 8 9 9 9 6 4 4 4 4 4 3 8 9
20 20 19 17 15 11 9 8 8 9 10 10 10 12 13 12 11 9 10 8 9 10 9 9 7 6 5 2 3 5 8 7
19 20 20 13 16 10 13 11 12 9 7 9 8 10 12 12 11 10 9 8 10 9 9 7 6 4 1 4 8 6 5 6
19 19 19 20 18 16 10 12 9 9 10 10 12 11 12 12 11 11 10 9 9 9 7 7 5 2 5 5 6 6 7 8
17 20 20 19 17 16 14 13 13 10 5 9 9 8 9 12 13 12 10 7 8 8 7 5 4 3 3 8 6 6 7 7
18 22 22 21 16 13 16 14 11 10 10 7 6 6 7 11 13 11 7 5 6 7 5 5 2 3 5 7 6 5 7 7
22 22 21 20 15 14 11 16 9 6 9 8 8 7 7 9 10 7 6 5 5 5 5 4 4 5 6 5 6 7 5 7
Wind_Direction
107 125 107 105 111 109 111 126 124 124 119 107 103 100 100 102 103 105 109 111 110 108 103 102 100 93 78 46 346 330 45 61
92 49 104 111 112 107 104 114 112 108 106 105 102 100 98 100 105 99 107 111 112 109 107 105 104 97 90 88 296 297 33 58
107 108 49 48 113 102 106 111 108 111 117 121 132 131 129 152 90 102 103 106 111 115 118 117 112 100 130 262 275 40 18 23
113 111 120 109 85 115 133 136 137 136 139 160 146 119 166 114 105 103 104 105 112 127 137 156 190 153 162 222 49 357 50 41
122 125 125 129 145 169 149 145 139 136 169 194 122 126 121 142 137 138 137 143 150 156 172 207 61 49 55 24 24 3 21 51
110 116 119 112 89 111 112 149 136 148 185 123 138 163 182 152 170 159 167 187 162 174 117 96 102 87 81 79 36 3 28 31
101 99 104 111 123 178 155 138 119 158 188 170 166 167 200 191 168 168 180 147 175 165 137 147 133 121 125 56 39 47 -0 353
138 146 139 151 152 144 92 76 203 203 175 197 200 191 183 185 175 171 164 176 166 165 155 158 177 151 125 43 36 11 48 344
136 136 163 158 142 124 126 210 217 202 205 165 196 217 191 180 183 176 180 174 163 163 179 170 184 183 118 136 192 169 68 329
156 163 164 179 172 184 201 198 202 192 189 186 196 210 189 194 182 195 170 169 179 180 197 184 191 205 163 198 178 259 25 277
175 173 185 189 199 189 208 211 207 204 200 190 190 206 196 199 202 185 177 189 190 194 189 208 165 219 219 236 255 288 228 253
185 181 189 185 196 194 194 201 205 210 200 202 179 199 192 207 200 182 201 196 191 201 191 192 229 281 268 233 242 276 255 256
177 185 194 191 202 196 202 200 210 209 204 215 186 209 194 209 207 187 215 204 204 185 188 185 186 191 260 233 233 190 240 255
181 189 196 202 196 220 200 200 205 205 195 194 221 208 205 206 219 191 205 202 196 192 197 189 209 195 282 291 303 235 201 214
192 198 199 205 213 203 192 216 206 208 203 198 201 217 215 210 209 209 199 211 195 196 201 205 203 186 229 352 294 272 335 190
203 203 206 201 217 208 202 208 211 200 190 204 218 222 216 214 210 212 200 206 203 198 204 212 239 202 148 242 241 283 288 297
200 207 207 202 198 224 195 214 226 221 209 198 198 209 216 217 205 204 204 215 208 207 199 212 180 229 237 262 229 237 239 267
197 207 207 211 203 201 226 205 226 253 217 199 207 207 209 209 204 202 204 206 204 206 193 173 178 235 243 268 281 279 287 273
200 204 208 207 198 189 213 228 210 211 263 200 201 204 208 212 207 199 197 187 200 185 161 135 154 189 248 266 277 282 291 291
201 206 211 207 193 187 201 224 211 207 169 189 208 197 196 220 213 183 182 178 140 134 156 177 179 211 257 263 293 301 285 274